Wind_Speed
15 14 14 14 14 13 10 9 8 8 7 6 5 5 5 5 4 4 4 5 5 5 5 5 5 5 5 5 5 5 5 5 6 6 8 8 8 8 9 10 10 10 10 10 9 9 9 10 9
15 14 15 17 14 11 9 9 9 9 8 7 6 6 6 5 5 5 5 5 5 5 6 5 5 6 5 5 5 5 5 6 6 7 7 8 8 9 10 10 11 10 10 10 9 8 9 8 8
15 14 17 17 12 10 10 9 9 9 8 7 7 6 6 6 6 5 5 5 5 5 5 5 5 5 5 5 5 5 6 6 7 7 7 8 9 10 10 10 10 10 10 10 9 8 8 7 6
13 16 17 14 11 10 9 9 8 8 8 7 7 6 6 6 6 5 6 6 6 6 5 4 5 5 5 5 5 5 5 5 6 7 7 8 9 10 10 9 9 10 9 9 9 8 7 6 6
15 18 16 12 10 10 9 9 9 8 8 8 8 7 7 7 6 6 6 6 6 6 5 5 4 5 5 5 5 4 4 5 6 7 7 7 8 9 9 9 9 8 7 8 8 7 6 5 5
17 17 12 10 9 9 9 9 9 9 9 9 8 8 8 8 7 7 7 6 6 6 6 5 5 5 5 5 5 5 4 5 5 6 6 6 7 8 9 9 9 8 8 8 7 7 6 5 4
15 14 12 9 8 9 9 9 9 9 8 9 9 9 9 8 8 7 7 6 6 6 6 6 6 6 5 5 5 5 4 4 5 6 6 6 7 7 8 8 8 7 7 7 6 6 5 5 4
13 11 10 9 8 9 9 9 9 9 9 9 9 9 9 9 9 8 7 6 6 6 6 7 6 6 6 6 6 6 6 5 5 6 6 6 7 7 7 7 7 6 6 6 6 5 5 4 3
11 10 8 7 7 8 9 9 9 8 9 9 10 9 9 9 9 9 9 7 6 6 6 7 8 7 7 6 6 6 6 6 5 6 6 6 6 6 6 7 7 6 6 6 5 4 4 3 2
8 7 6 6 6 7 7 8 10 9 9 9 10 10 9 9 9 9 9 8 7 7 7 7 8 8 7 7 7 7 6 6 6 5 6 6 6 5 6 6 6 6 5 5 4 4 3 2 2
6 6 5 5 6 6 7 8 9 9 9 9 10 10 9 9 10 10 10 8 7 7 7 7 7 7 6 6 6 6 6 6 6 6 6 5 5 5 5 5 5 4 5 4 3 3 3 3 3
3 3 3 5 6 6 6 7 8 9 9 8 9 10 10 10 10 11 10 9 8 8 7 7 6 6 6 6 6 6 5 4 4 5 4 4 3 3 3 3 4 4 5 5 4 4 4 4 4
2 3 3 4 5 6 6 7 9 10 9 8 8 9 9 10 11 11 10 9 8 7 7 6 6 6 6 6 6 5 4 4 4 4 2 2 2 1 2 3 3 3 4 4 4 5 4 4 5
1 1 2 3 4 4 4 5 7 9 10 9 8 8 9 9 9 10 10 10 9 8 7 7 7 6 6 5 5 4 4 4 3 3 2 1 1 1 0 2 2 2 3 4 3 4 4 4 5
0 2 3 3 3 4 4 4 5 8 9 8 8 7 8 8 9 9 10 10 10 8 8 7 7 6 6 6 5 5 4 4 4 3 2 2 1 1 1 2 2 2 3 3 4 5 5 5 5
1 2 2 3 3 4 4 5 5 6 8 8 8 7 7 8 8 8 9 9 9 9 8 7 7 6 6 6 5 5 5 5 5 5 4 4 2 2 2 1 2 2 3 4 5 6 6 6 7
2 3 3 4 4 4 4 4 5 6 7 8 7 8 7 7 7 8 8 8 8 8 8 7 6 6 6 6 6 6 6 6 6 5 5 4 3 3 3 3 3 3 4 5 5 6 6 7 8
5 5 5 5 6 5 4 5 5 6 6 7 7 7 7 6 6 7 7 7 8 8 8 7 7 6 6 6 6 5 5 5 6 6 5 5 4 3 4 4 4 5 6 6 6 6 7 7 8
7 7 7 7 7 6 5 6 5 5 6 6 7 7 6 6 6 6 6 6 7 7 7 7 7 7 6 6 6 6 5 5 7 6 6 5 4 4 4 5 5 6 6 7 7 7 8 8 9
10 10 9 8 8 6 5 7 6 6 5 6 7 6 6 5 5 6 6 6 6 6 6 7 7 7 7 6 5 6 6 6 6 6 7 6 6 6 6 6 6 7 7 7 8 9 9 10 10
11 11 11 9 7 7 7 8 9 8 7 7 7 7 6 5 5 5 6 6 6 6 6 6 6 7 7 7 6 6 5 6 6 6 6 6 6 6 6 7 7 7 8 8 9 9 10 10 11
12 12 12 10 9 9 7 10 11 9 9 9 9 8 7 6 5 5 6 6 6 6 6 6 6 7 7 8 8 7 6 6 6 6 7 7 6 6 7 8 8 8 8 9 9 9 10 11 11
15 13 12 10 10 11 11 12 12 11 11 10 10 10 8 8 7 6 6 6 6 6 6 7 7 7 7 7 7 7 6 6 7 7 7 7 7 7 7 8 8 8 8 8 9 9 10 10 11
15 13 12 11 13 13 12 13 14 13 12 12 12 11 10 9 8 8 8 7 6 7 7 7 8 8 8 8 7 7 7 7 8 7 7 8 8 8 8 8 8 9 9 9 9 10 10 11 12
15 14 13 13 13 12 11 13 15 15 13 12 12 10 11 10 8 9 9 9 8 8 8 8 8 8 9 9 9 8 8 8 8 8 8 8 8 8 9 9 10 10 11 11 11 11 11 12 12
17 17 17 15 13 13 14 14 13 15 15 14 13 12 11 11 11 11 11 11 11 10 9 9 9 9 9 9 9 10 10 9 8 9 9 9 9 9 10 10 10 11 12 12 12 12 12 12 12
18 18 16 17 16 16 15 15 15 15 16 16 15 14 13 13 13 12 13 12 12 11 11 11 11 10 10 10 10 10 10 10 10 10 11 10 10 11 11 11 12 13 13 13 13 12 13 13 13
19 19 18 18 18 18 17 15 16 16 17 17 16 15 15 14 14 13 13 13 13 13 12 12 11 12 12 11 11 11 11 11 11 11 11 11 11 12 12 12 13 13 13 13 13 13 13 13 14
20 19 19 19 19 18 17 15 16 17 17 18 18 17 16 15 14 14 14 14 13 13 13 13 12 13 13 12 12 12 12 12 12 12 12 12 13 13 13 14 14 13 13 14 14 14 14 14 14
21 20 20 21 22 21 18 17 15 16 16 18 18 17 16 16 16 16 16 15 14 14 13 13 13 13 13 13 13 13 13 13 13 13 13 14 14 14 15 15 15 14 14 14 15 15 14 14 14
Wind_Direction
69 66 68 68 56 55 54 49 44 46 46 50 49 49 43 41 50 57 58 62 61 61 66 68 70 65 65 70 84 101 100 112 125 134 143 142 140 143 145 145 145 142 141 135 125 122 118 123 128
70 66 65 60 55 45 43 46 44 41 44 46 47 44 43 47 57 58 54 53 54 57 56 65 70 66 62 72 84 96 98 107 122 133 144 144 140 142 143 141 142 137 132 131 126 118 116 115 118
72 68 60 55 49 43 42 43 40 41 42 42 44 43 41 45 59 57 53 54 59 58 59 68 70 64 66 74 82 87 97 105 116 127 140 146 144 145 142 144 139 133 129 127 124 121 116 112 113
72 66 58 49 39 40 43 44 42 45 42 41 42 42 42 46 54 53 55 56 59 55 55 65 72 62 68 76 85 92 102 112 120 131 137 140 141 141 144 142 137 132 131 132 128 126 121 118 117
74 65 57 42 34 36 41 39 41 41 41 44 45 45 41 45 52 52 53 57 53 50 50 59 67 61 69 79 85 93 109 116 122 124 127 134 141 139 141 141 140 136 132 132 133 129 126 124 123
71 63 55 40 29 32 39 40 35 37 37 40 43 41 39 45 50 49 50 49 48 51 51 53 64 65 69 75 80 95 110 121 118 115 106 121 137 140 139 137 140 138 131 132 135 133 129 125 122
71 61 47 41 27 30 32 35 35 36 35 37 39 39 38 42 44 44 45 43 44 50 52 60 61 66 74 76 77 86 105 121 116 109 109 122 131 136 141 143 144 144 138 135 134 131 124 120 122
73 66 49 37 28 29 29 31 33 34 36 39 39 39 38 39 42 42 43 47 49 52 56 61 63 70 77 78 81 87 94 106 109 110 112 123 131 137 143 145 147 149 141 138 135 134 130 128 130
64 57 45 31 26 28 31 27 32 41 39 39 40 40 38 40 41 40 42 51 55 55 55 61 71 77 79 78 80 89 96 100 103 105 115 124 129 135 142 148 152 150 144 142 143 147 149 146 146
53 51 40 31 31 30 32 32 31 34 35 35 37 36 36 38 42 41 47 56 56 58 63 71 75 76 74 78 80 85 88 87 93 104 114 127 130 131 138 147 154 156 157 159 158 165 175 179 197
49 46 32 28 38 31 29 35 34 29 29 33 35 36 37 39 41 40 47 53 55 59 63 71 73 71 72 76 83 86 87 89 96 101 104 124 131 133 142 146 155 167 174 181 189 187 206 218 224
56 52 32 32 33 28 30 33 28 27 30 36 38 38 40 40 42 42 46 57 59 62 64 66 67 70 74 81 84 86 88 87 76 79 104 120 130 140 145 167 177 182 190 200 213 216 224 234 232
51 37 21 23 28 23 27 30 24 26 29 34 37 38 39 39 41 44 47 56 62 61 60 64 67 66 71 79 82 79 75 65 57 58 78 109 118 126 169 177 180 190 205 222 235 232 234 238 245
113 70 7 19 27 25 33 33 21 27 23 27 32 33 36 36 40 45 48 53 60 60 56 64 69 68 67 67 66 59 53 46 39 34 43 44 25 14 297 219 228 236 242 243 253 251 251 244 251
91 43 17 12 8 3 12 25 25 21 18 20 26 28 31 34 35 47 47 49 55 58 57 62 57 59 57 55 54 49 42 37 30 20 13 8 351 313 314 310 289 275 267 258 262 271 267 270 275
291 328 339 345 341 334 349 351 354 13 12 12 22 26 29 31 33 36 41 48 51 52 53 53 54 52 49 45 45 46 40 38 35 28 18 10 357 340 328 318 303 291 290 277 275 278 274 275 279
231 278 283 292 296 308 320 321 336 355 359 1 14 20 25 26 27 30 35 41 44 46 47 48 46 44 41 37 37 40 36 37 36 31 22 10 356 341 323 313 304 298 295 293 291 291 287 285 286
218 238 260 273 279 281 302 305 318 331 342 353 3 9 16 19 20 21 27 33 37 38 37 39 39 40 38 34 34 34 30 30 27 25 18 12 3 344 329 317 309 302 295 292 293 293 291 291 292
231 236 245 257 262 271 288 299 303 311 327 340 346 350 1 8 12 13 18 25 30 32 31 29 31 31 27 27 27 23 21 18 17 20 14 8 1 347 329 317 320 311 298 296 297 297 297 295 294
228 230 237 248 260 272 275 281 287 302 316 319 323 332 341 351 359 2 6 12 17 19 21 20 21 21 15 14 14 10 12 13 12 6 2 1 359 352 338 326 320 322 318 307 303 297 296 297 296
236 233 236 241 256 271 278 282 286 290 302 308 314 318 325 329 344 352 354 1 3 4 6 6 9 10 8 5 0 358 357 360 3 4 0 356 352 349 343 334 327 323 321 315 307 302 296 299 299
244 240 240 237 252 260 262 275 278 289 297 298 307 311 311 310 320 331 339 345 348 353 357 356 354 355 354 355 354 352 351 351 352 355 355 351 347 340 337 333 332 325 321 318 315 309 304 303 298
242 240 238 235 240 244 246 259 270 280 283 290 298 301 297 301 304 309 318 326 330 332 338 342 344 344 345 347 350 346 345 346 344 344 345 344 341 338 333 328 328 330 326 321 318 314 309 308 302
241 240 241 238 243 248 243 251 264 265 273 281 285 293 295 295 298 299 302 307 314 318 322 327 332 336 339 340 341 338 332 331 331 333 336 338 336 335 334 328 324 323 325 323 318 315 313 310 305
234 237 237 241 246 251 252 256 263 262 269 275 278 284 288 291 292 295 297 302 310 309 311 318 323 325 328 333 335 334 329 325 322 325 330 333 334 333 335 329 322 320 321 319 317 314 312 310 306
234 234 234 236 242 247 247 249 257 265 267 271 272 271 274 277 282 287 290 292 297 302 303 306 311 315 316 322 326 328 328 330 325 325 326 327 329 330 333 334 328 324 320 318 317 314 311 308 306
234 236 237 238 243 247 246 246 255 261 269 273 274 270 266 270 279 284 285 287 289 294 299 303 303 306 307 309 314 319 321 322 323 321 320 319 320 321 325 326 324 321 319 317 314 309 309 307 306
236 236 233 234 239 245 249 250 255 258 268 272 273 269 267 271 278 282 281 283 286 287 289 296 301 303 303 302 304 310 313 313 313 315 319 317 315 315 318 320 316 316 315 315 314 311 309 309 306
237 234 234 237 239 242 251 253 252 258 266 272 276 273 270 273 274 276 279 280 283 286 289 290 294 299 298 296 296 300 304 304 307 309 310 310 311 313 313 314 312 311 311 311 311 311 309 307 307
238 236 235 235 239 236 244 251 246 256 265 271 273 271 272 275 277 274 276 279 280 283 287 290 294 297 296 294 292 293 295 296 299 300 302 305 306 307 309 310 311 309 309 309 309 309 307 306 307
Height
5880 5879 5877 5877 5877 5878 5877 5877 5876 5875 5874 5873 5872 5872 5871 5871 5871 5872 5870 5868 5868 5868 5867 5867 5867 5867 5866 5866 5866 5866 5867 5867 5867 5868 5869 5870 5871 5872 5873 5874 5875 5877 5878 5880 5881 5882 5883 5884 5886
5882 5882 5879 5879 5880 5881 5880 5879 5878 5877 5876 5875 5874 5873 5873 5872 5872 5871 5870 5870 5870 5869 5868 5868 5868 5868 5868 5868 5868 5868 5868 5868 5869 5869 5870 5871 5872 5873 5874 5876 5877 5878 5880 5881 5883 5884 5885 5886 5887
5885 5884 5882 5882 5884 5884 5883 5881 5880 5879 5878 5876 5876 5875 5875 5874 5873 5872 5872 5871 5871 5871 5870 5870 5869 5869 5869 5869 5869 5869 5870 5870 5871 5871 5872 5872 5873 5874 5876 5877 5879 5880 5882 5883 5884 5885 5886 5887 5888
5887 5885 5886 5888 5886 5886 5885 5884 5882 5881 5880 5878 5878 5877 5876 5875 5874 5874 5873 5873 5873 5872 5871 5871 5871 5871 5871 5871 5871 5871 5871 5872 5872 5872 5873 5874 5875 5876 5878 5879 5880 5882 5883 5884 5886 5887 5888 5889 5889
5888 5887 5890 5891 5890 5889 5887 5886 5884 5883 5882 5881 5880 5879 5878 5877 5876 5875 5875 5874 5874 5873 5873 5872 5872 5872 5872 5872 5872 5872 5873 5873 5873 5874 5875 5876 5877 5878 5879 5880 5882 5883 5884 5886 5887 5888 5889 5890 5890
5890 5891 5894 5894 5892 5891 5890 5888 5887 5885 5884 5882 5882 5880 5879 5879 5878 5877 5876 5876 5875 5875 5874 5874 5873 5873 5873 5874 5874 5874 5874 5875 5875 5876 5877 5877 5878 5879 5881 5882 5883 5885 5886 5887 5888 5889 5890 5890 5891
5893 5894 5896 5896 5895 5893 5892 5890 5889 5887 5886 5885 5884 5883 5881 5880 5880 5879 5878 5877 5876 5876 5876 5875 5875 5875 5875 5875 5875 5875 5876 5876 5877 5878 5878 5879 5880 5881 5882 5883 5885 5886 5887 5888 5889 5889 5890 5891 5892
5895 5898 5899 5898 5897 5895 5894 5892 5891 5889 5888 5887 5886 5885 5883 5882 5881 5880 5879 5878 5878 5877 5877 5877 5876 5876 5876 5876 5876 5877 5877 5877 5878 5879 5879 5880 5881 5882 5883 5884 5886 5887 5888 5889 5890 5890 5891 5891 5892
5899 5901 5901 5901 5899 5898 5896 5894 5893 5891 5890 5889 5888 5887 5885 5884 5883 5882 5881 5880 5879 5879 5878 5878 5878 5878 5878 5878 5878 5878 5879 5879 5880 5880 5881 5881 5882 5883 5884 5886 5887 5888 5889 5889 5890 5891 5891 5892 5893
5903 5903 5903 5902 5901 5899 5898 5896 5895 5893 5892 5891 5890 5888 5887 5886 5885 5884 5882 5881 5881 5880 5880 5880 5880 5880 5880 5880 5880 5880 5880 5881 5881 5881 5882 5883 5883 5884 5885 5886 5887 5888 5889 5890 5890 5891 5892 5892 5893
5905 5905 5905 5904 5902 5901 5900 5898 5897 5896 5894 5893 5892 5890 5889 5888 5887 5885 5883 5883 5882 5882 5882 5882 5881 5881 5882 5882 5882 5882 5882 5882 5883 5883 5883 5884 5884 5885 5886 5887 5888 5888 5889 5890 5891 5891 5892 5892 5893
5907 5907 5906 5905 5904 5903 5902 5900 5899 5898 5897 5895 5894 5892 5891 5890 5888 5887 5885 5885 5884 5884 5884 5883 5883 5883 5883 5883 5884 5884 5884 5884 5884 5884 5885 5885 5886 5886 5887 5888 5888 5889 5890 5890 5891 5891 5892 5892 5893
5908 5908 5907 5906 5906 5904 5903 5902 5901 5899 5898 5897 5896 5894 5893 5892 5890 5889 5888 5887 5887 5886 5886 5885 5885 5885 5885 5885 5885 5886 5886 5885 5885 5885 5886 5886 5887 5887 5888 5888 5888 5889 5890 5891 5891 5891 5891 5892 5892
5908 5908 5908 5907 5907 5906 5905 5904 5903 5901 5900 5899 5898 5897 5895 5894 5893 5892 5891 5889 5889 5888 5887 5886 5887 5887 5887 5887 5887 5887 5887 5887 5887 5887 5887 5887 5887 5887 5888 5888 5888 5889 5890 5890 5891 5891 5891 5891 5891
5908 5909 5910 5908 5908 5907 5907 5906 5904 5903 5902 5900 5899 5898 5897 5896 5894 5893 5893 5892 5891 5890 5889 5888 5889 5889 5889 5888 5888 5888 5888 5888 5888 5887 5887 5887 5888 5888 5888 5889 5889 5889 5890 5890 5890 5890 5890 5891 5891
5909 5910 5911 5910 5909 5909 5910 5908 5905 5904 5903 5902 5901 5900 5899 5898 5897 5896 5895 5894 5893 5892 5892 5891 5891 5890 5890 5890 5890 5890 5889 5889 5889 5888 5888 5888 5888 5888 5888 5889 5889 5889 5890 5890 5890 5890 5890 5890 5890
5910 5912 5912 5911 5910 5909 5909 5908 5906 5906 5905 5903 5902 5901 5900 5899 5898 5897 5897 5896 5895 5894 5894 5893 5892 5892 5892 5891 5891 5891 5891 5890 5890 5889 5889 5889 5888 5888 5889 5889 5889 5889 5889 5889 5889 5889 5889 5889 5889
5911 5912 5912 5912 5911 5910 5910 5909 5907 5907 5905 5905 5903 5903 5902 5901 5900 5899 5898 5897 5897 5896 5895 5895 5894 5893 5893 5893 5892 5892 5892 5891 5891 5890 5890 5889 5889 5889 5889 5889 5889 5889 5889 5889 5888 5888 5888 5888 5888
5910 5911 5911 5911 5911 5910 5910 5909 5908 5907 5906 5906 5905 5904 5903 5902 5901 5900 5900 5899 5898 5898 5897 5896 5895 5895 5894 5894 5893 5893 5892 5892 5891 5891 5890 5890 5889 5889 5889 5889 5889 5888 5888 5888 5887 5887 5887 5887 5887
5908 5909 5910 5910 5910 5910 5909 5909 5909 5907 5907 5906 5905 5904 5903 5903 5902 5901 5900 5900 5900 5899 5898 5898 5897 5896 5896 5895 5894 5893 5893 5892 5892 5891 5891 5890 5889 5889 5889 5888 5888 5887 5887 5887 5886 5886 5886 5885 5885
5906 5908 5909 5909 5909 5909 5909 5909 5908 5908 5907 5906 5905 5905 5904 5903 5903 5902 5901 5901 5900 5900 5899 5899 5898 5897 5896 5896 5895 5894 5893 5893 5892 5891 5891 5890 5889 5888 5888 5888 5887 5887 5886 5886 5885 5885 5884 5884 5883
5904 5906 5907 5907 5907 5908 5909 5908 5907 5906 5906 5906 5905 5904 5904 5903 5902 5902 5902 5901 5901 5901 5900 5899 5899 5898 5897 5896 5895 5894 5894 5893 5892 5891 5891 5890 5889 5888 5887 5887 5886 5886 5885 5884 5883 5883 5882 5882 5882
5902 5903 5904 5905 5906 5906 5907 5907 5906 5906 5906 5905 5904 5904 5903 5902 5902 5902 5901 5901 5901 5901 5900 5900 5899 5898 5897 5896 5895 5894 5894 5893 5892 5891 5890 5889 5888 5887 5886 5886 5885 5885 5884 5883 5882 5881 5881 5880 5880
5899 5901 5901 5902 5903 5904 5905 5905 5904 5903 5904 5904 5903 5903 5902 5902 5901 5901 5901 5900 5900 5900 5900 5899 5899 5898 5897 5896 5895 5894 5894 5893 5892 5891 5890 5889 5888 5887 5886 5885 5884 5883 5883 5882 5881 5880 5879 5878 5877
5896 5898 5899 5900 5901 5901 5903 5903 5903 5901 5902 5902 5902 5902 5900 5900 5900 5900 5900 5899 5899 5899 5899 5899 5898 5898 5897 5896 5895 5894 5893 5892 5891 5890 5889 5888 5887 5886 5885 5884 5883 5882 5881 5880 5879 5878 5877 5876 5875
5892 5894 5896 5898 5899 5900 5901 5900 5900 5899 5900 5900 5900 5900 5899 5899 5899 5899 5898 5898 5898 5898 5898 5897 5897 5897 5896 5895 5894 5893 5892 5891 5890 5889 5888 5887 5886 5885 5884 5883 5882 5881 5880 5879 5877 5877 5876 5874 5873
5888 5890 5893 5895 5895 5896 5896 5896 5896 5896 5897 5898 5897 5897 5897 5897 5897 5897 5897 5896 5896 5896 5896 5896 5895 5895 5894 5893 5893 5892 5891 5890 5889 5888 5887 5886 5885 5884 5882 5881 5880 5879 5878 5877 5876 5874 5873 5872 5871
5885 5887 5889 5890 5891 5892 5893 5893 5893 5892 5894 5895 5895 5894 5894 5894 5894 5894 5894 5894 5894 5894 5893 5893 5893 5893 5892 5891 5891 5890 5889 5888 5887 5886 5885 5884 5883 5882 5881 5879 5878 5877 5876 5875 5874 5872 5871 5870 5868
5880 5882 5884 5886 5887 5889 5889 5892 5890 5890 5890 5891 5891 5891 5891 5891 5892 5891 5891 5891 5891 5891 5891 5891 5890 5890 5889 5889 5888 5888 5887 5886 5885 5884 5883 5882 5881 5880 5879 5877 5876 5875 5873 5872 5871 5870 5868 5867 5865
5875 5877 5880 5882 5882 5884 5885 5888 5885 5885 5886 5886 5887 5887 5887 5888 5888 5888 5888 5888 5888 5888 5888 5888 5888 5887 5887 5886 5885 5885 5884 5883 5883 5882 5881 5880 5879 5877 5876 5875 5874 5872 5871 5870 5868 5867 5865 5864 5863